Regional Weather Roundup
Issued by NWS

Home | Current Version | Previous Version | Text Only | Print | Product List | Glossary On
Versions: 1 2 3 4 5 6 7 8 9 10 11 12 13 14 15 16 17 18 19 20 21 22 23 24 25 26 27 28 29 30 31 32 33 34 35 36 37 38 39 40 41 42 43 44 45 46 47 48 49 50
616
ASUS44 KLIX 290501
RWRLA
LOUISIANA WEATHER ROUNDUP
NATIONAL WEATHER SERVICE NEW ORLEANS LA
1200 AM CDT TUE JUL 29 2014

NOTE: "FAIR" INDICATES FEW OR NO CLOUDS BELOW 12,000 FEET WITH NO
      SIGNIFICANT WEATHER AND/OR OBSTRUCTIONS TO VISIBILITY.
      SKY/WX - SKY CONDITION AND SIGNIFICANT WEATHER.
      TMP - AIR TEMPERATURE.    DP   - DEWPOINT TEMPERATURE.
      RH  - RELATIVE HUMIDITY.  PRES - PRESSURE.
      HX  - HEAT INDEX.         WCI  - WIND CHILL INDEX.

*  THESE STATIONS ARE NOT NWS OR FAA STATIONS AND ARE NOT UNDER
   NWS QUALITY CONTROL.

LAZ040-048-061>063-065-066-069-290600-
SOUTHEAST LOUISIANA

CITY           SKY/WX    TMP DP  RH WIND       PRES   REMARKS
N.O. AUDUBON     N/A     84  79  84 MISG        N/A  HX  95
N.O. INTL ARPT MOCLDY    83  77  82 NW3       30.01F
N.O. LAKEFRONT MOCLDY    85  79  82 NW14      30.01F HX  98
N.O. DOWNTOWN* MOCLDY    88  73  62 NW5       30.01F HX  96
SLIDELL        MOCLDY    78  74  87 CALM      30.00F
BATON ROUGE    CLOUDY    77  72  84 CALM      30.02F
BOOTHVILLE     MOCLDY    84  79  85 W8        30.02F HX  96
BELLE CHASSE   MOCLDY    82  76  81 SW3       30.00F THUNDER
BOGALUSA*      FAIR      79  73  81 N3        30.03S
GALLIANO*      NOT AVBL
NEW ROADS*     FAIR      75  74  95 CALM      30.03S
GONZALES*      FAIR      79  75  87 NW3       30.01F
HAMMOND*       MOCLDY    79  73  83 CALM      30.03F
HOUMA*         PTCLDY    82  74  76 NW8       30.02F
PORT FOURCHON* CLEAR     86  79  79 W12       30.04F HX  99

$$

LAZ041-044-053-054-290600-
SOUTHWEST LOUISIANA

CITY           SKY/WX    TMP DP  RH WIND       PRES   REMARKS
LAKE CHARLES   CLOUDY    83  80  91 S5        30.01S HX  95
LAFAYETTE      NOT AVBL
PATTERSON      CLOUDY    79  73  83 N3        30.06F
SALT POINT       N/A     81  73  76 CALM      30.02F
NEW IBERIA     CLOUDY    77  73  87 CALM      30.03F
CHENAULT AIRPK NOT AVBL

$$

LAZ027-028-290600-
CENTRAL LOUISIANA

CITY           SKY/WX    TMP DP  RH WIND       PRES   REMARKS
FORT POLK      CLOUDY    76  72  87 W9        30.05R
ALEXANDRIA INT CLOUDY    77  74  90 CALM      30.01R
ALEXANDRIA     CLOUDY    76  73  91 CALM      30.03S

$$

LAZ001-002-290600-
NORTHWEST LOUISIANA

CITY           SKY/WX    TMP DP  RH WIND       PRES   REMARKS
SHREVEPORT     CLOUDY    80  70  71 N7        30.04R
BARKSDALE AFB  PTCLDY    78  69  74 N3        30.04S
DTN SHREVEPORT PTCLDY    79  69  71 N5        30.04S

$$

LAZ014-016-290600-
NORTHEAST LOUISIANA

CITY           SKY/WX    TMP DP  RH WIND       PRES   REMARKS
MONROE         CLEAR     76  67  73 NE5       30.05F
TALLULAH       CLEAR     74  66  76 NE8       30.05S

$$




USA.gov is the U.S. government's official web portal to all federal, state and local government web resources and services.